Terug naar catalogus

COSMOS 1275 DEB

ActiefPO
NORAD 42111·DEBRIS·🇷🇺 Russia

Gelanceerd Jun 4, 1981 vanaf Plesetsk Cosmodrome

Loading…

Volgende Passages (komende 24 uur)

TLE

VerouderendSource: Space-Track

Epoch: Sep 11, 2026, 06:20 UTC

1 42111U 81053PX  26254.26416308  .00003013  00000-0  10643-2 0  9998
2 42111  82.8059 200.2296 0040139  73.9376 286.6227 14.33989462662114

Volg COSMOS 1275 DEB in realtime met AllMySat

Download on the App Store